This is the latest recevied weather packets stored in our database for station/object VE3DVC. If no packets are shown the sender has not sent any weather packets the latest 10 day(s).
| Time | Temp. | Humidity | Pressure | Rain* | Wind** | Luminosity | Snow |
|---|---|---|---|---|---|---|---|
| 1778221094 | 5° C | 92% | 1011.5 hPa | 0 mm | - | - | - |
| 1778220374 | 5° C | 92% | 1011.5 hPa | 0 mm | - | - | - |
| 1778219655 | 5° C | 92% | 1011.8 hPa | 0 mm | - | - | - |
| 1778218934 | 5° C | 92% | 1011.9 hPa | 0 mm | - | - | - |
| 1778218214 | 4.44° C | 92% | 1012 hPa | 0 mm | - | - | - |
| 1778217494 | 4.44° C | 92% | 1012.1 hPa | 0 mm | - | - | - |
| 1778216577 | 4.44° C | 92% | 1012.1 hPa | 0 mm | - | - | - |
| 1778215858 | 4.44° C | 92% | 1012.1 hPa | 0 mm | - | - | - |
| 1778215138 | 4.44° C | 92% | 1012.1 hPa | 0 mm | - | - | - |
| 1778214417 | 4.44° C | 92% | 1012.1 hPa | 0 mm | - | - | - |
| 1778213697 | 3.89° C | 92% | 1012 hPa | 0 mm | - | - | - |
| 1778212977 | 3.89° C | 92% | 1011.8 hPa | 0 mm | - | - | - |
| 1778212257 | 3.89° C | 92% | 1011.8 hPa | 0 mm | - | - | - |
| 1778211538 | 3.89° C | 91% | 1011.8 hPa | 0 mm | - | - | - |
| 1778210818 | 3.89° C | 91% | 1011.8 hPa | 0 mm | - | - | - |
| 1778209467 | 3.89° C | 91% | 1011.9 hPa | 0 mm | - | - | - |
| 1778208747 | 4.44° C | 91% | 1011.9 hPa | 0 mm | - | - | - |
| 1778208027 | 4.44° C | 90% | 1011.8 hPa | 0 mm | - | - | - |
| 1778207180 | 4.44° C | 90% | 1011.7 hPa | 0 mm | - | - | - |
| 1778206460 | 5° C | 90% | 1011.7 hPa | 0 mm | - | - | - |
| 1778205740 | 5° C | 90% | 1011.7 hPa | 0 mm | - | - | - |
| 1778205021 | 5° C | 89% | 1011.7 hPa | 0 mm | - | - | - |
| 1778204300 | 5.56° C | 89% | 1011.7 hPa | 0 mm | - | - | - |
| 1778203580 | 5.56° C | 89% | 1011.6 hPa | 0 mm | - | - | - |
| 1778202860 | 6.11° C | 88% | 1011.4 hPa | 0 mm | - | - | - |
* Rain latest hour (hover to see other rain measurements)
** Current wind speed in m/s (hover to see current wind gust speed)